EW6230 Weather Reports


time (UTC)temp
C
wind
direction
speed
KPH
gust
KPH
rain 1hr
cm
rain 24hr
cm
rain mn
cm
humidity
%
barometer
mb
20260506201531 12 148 0.0 0.0 0.00 0.00 0.00 19 1016.8
20260506200031 12 185 0.0 0.0 0.00 0.00 0.00 14 1016.8
20260506194523 12 226 0.0 1.6 0.00 0.00 0.00 7 1016.8
20260506193018 11 230 0.0 1.6 0.00 0.00 0.00 3 1016.8
20260506191517 11 223 0.0 0.0 0.00 0.00 0.00 2 1016.8
20260506190009 11 65 0.0 0.0 0.00 0.00 0.00 3 1016.7
20260506184505 11 200 0.0 0.0 0.00 0.00 0.00 1 1016.5
20260506183000 11 200 0.0 0.0 0.00 0.00 0.00 1 1016.4
20260506181601 11 278 0.0 0.0 0.00 0.00 0.00 1 1016.4
20260506180054 11 278 0.0 0.0 0.00 0.00 0.00 1 1016.4
20260506174605 11 278 0.0 1.6 0.00 0.00 0.00 1 1016.3
20260506173053 11 89 0.0 3.2 0.00 0.00 0.00 1 1016.2
20260506171542 11 198 0.0 0.0 0.00 0.00 0.00 1 1016.2
20260506170036 11 198 0.0 0.0 0.00 0.00 0.00 1 1016.1
20260506164533 11 199 0.0 0.0 0.00 0.00 0.00 1 1016.0
20260506163047 11 162 0.0 1.6 0.00 0.00 0.00 1 1015.7
20260506161526 10 233 0.0 0.0 0.00 0.00 0.00 1 1015.9
20260506160020 10 206 0.0 0.0 0.00 0.00 0.00 1 1015.7
20260506154528 10 206 0.0 0.0 0.00 0.00 0.00 1 1015.9
20260506153011 10 206 0.0 1.6 0.00 0.00 0.00 1 1016.1
20260506151506 10 221 0.0 0.0 0.00 0.00 0.00 1 1015.8
20260506144556 10 221 0.0 0.0 0.00 0.00 0.00 1 1015.5
20260506143051 -17 0.0 0.0 0.00 0.00 0.00 1015.1
20260506141548 -17 0.0 0.0 0.00 0.00 0.00 1015.1
20260506140043 -17 0.0 0.0 0.00 0.00 0.00 1015.3
20260506134538 -17 0.0 0.0 0.00 0.00 0.00 1014.9
20260506133034 -17 0.0 0.0 0.00 0.00 0.00 1014.8
20260506131535 -17 0.0 0.0 0.00 0.00 0.00 1014.9
20260506130126 -17 0.0 0.0 0.00 0.00 0.00 1014.7
20260506124521 -17 0.0 0.0 0.00 0.00 0.00 1014.7
20260506123017 10 301 0.0 0.0 0.00 0.00 0.00 1 1014.5
20260506121513 10 301 0.0 0.0 0.00 0.00 0.00 1 1014.8
20260506120012 10 301 0.0 0.0 0.00 0.00 0.00 1 1014.8
20260506114504 10 301 0.0 0.0 0.00 0.00 0.00 1 1014.7
20260506113059 10 301 0.0 0.0 0.00 0.00 0.00 1 1014.5
20260506111555 10 301 0.0 0.0 0.00 0.00 0.00 1 1014.3
20260506110051 10 301 0.0 0.0 0.00 0.00 0.00 1 1014.1
20260506104548 10 281 0.0 0.0 0.00 0.00 0.00 1 1014.1
20260506103041 10 281 0.0 0.0 0.00 0.00 0.00 1 1014.0
20260506101537 10 281 0.0 1.6 0.00 0.00 0.00 1 1013.7
20260506100036 10 359 0.0 0.0 0.00 0.00 0.00 1 1013.6
20260506094527 10 127 0.0 0.0 0.00 0.00 0.00 1 1013.5
20260506093024 10 143 0.0 0.0 0.00 0.00 0.00 1 1013.6
20260506091519 10 144 0.0 0.0 0.00 0.00 0.00 1 1013.6
20260506090014 10 144 0.0 0.0 0.00 0.00 0.00 1 1013.5
20260506084510 10 144 0.0 0.0 0.00 0.00 0.00 1 1013.5
20260506083014 10 144 0.0 0.0 0.00 0.00 0.00 1 1013.4
20260506081501 10 144 0.0 0.0 0.00 0.00 0.00 1 1013.3
20260506073048 10 144 0.0 0.0 0.00 0.00 0.00 1 1013.0
20260506071544 10 145 0.0 0.0 0.00 0.00 0.00 1 1012.9
20260506061535 10 100 0.0 0.0 0.00 0.00 0.00 1 1012.6
20260506044530 10 162 0.0 0.0 0.00 0.00 0.00 1 1012.4
20260506043030 10 162 0.0 0.0 0.00 0.00 0.00 1 1012.3
20260506041546 10 162 0.0 0.0 0.00 0.00 0.00 1 1012.0
20260506040029 10 163 0.0 0.0 0.00 0.00 0.00 1 1011.8
20260506034533 10 161 0.0 0.0 0.00 0.00 0.00 1 1011.4
20260506033019 11 161 0.0 0.0 0.00 0.00 0.00 1 1011.3
20260506031515 11 161 0.0 0.0 0.00 0.00 0.00 1 1011.2
20260506030012 11 161 0.0 0.0 0.00 0.00 0.00 1 1011.2
20260506024505 12 161 0.0 0.0 0.00 0.00 0.00 5 1011.3
20260506023002 12 161 0.0 0.0 0.00 0.00 0.00 14 1011.1
20260506021557 12 161 0.0 0.0 0.00 0.00 0.00 22 1011.1
20260506020055 12 161 0.0 0.0 0.00 0.00 0.00 30 1011.2
20260506014548 13 161 0.0 0.0 0.00 0.00 0.00 38 1011.1
20260506013052 13 161 0.0 0.0 0.00 0.00 0.00 45 1011.2
20260506011543 14 238 0.0 1.6 0.00 0.00 0.00 48 1011.2
20260506010036 15 238 0.0 0.0 0.00 0.00 0.00 53 1011.2
20260506004531 15 39 0.0 1.6 0.00 0.00 0.00 56 1011.2
20260506003027 16 344 0.0 1.6 0.00 0.00 0.00 61 1011.2
20260506001522 17 340 0.0 0.0 0.00 0.00 0.00 61 1011.3
20260506000017 17 1 0.0 1.6 0.00 0.00 0.00 62 1011.4
20260505234512 17 27 0.0 8.0 0.00 0.00 0.00 61 1011.5
20260505233011 17 260 0.0 4.8 0.00 0.00 0.00 61 1011.7
20260505231504 17 322 0.0 1.6 0.00 0.00 0.00 62 1011.7
20260505230122 17 149 0.0 1.6 0.00 0.00 0.00 62 1011.8
20260505224556 18 122 0.0 1.6 0.00 0.00 0.00 61 1012.0
20260505223052 18 213 0.0 1.6 0.00 0.00 0.00 62 1012.1
20260505221555 17 312 0.0 4.8 0.00 0.00 0.00 62 1012.3
20260505220052 17 148 0.0 3.2 0.00 0.00 0.00 61 1012.3
20260505214538 17 56 0.0 1.6 0.00 0.00 0.00 62 1012.5
20260505213034 17 63 0.0 9.7 0.00 0.00 0.00 60 1012.5
20260505211531 17 20 0.0 1.6 0.00 0.00 0.00 58 1012.5
20260505210023 16 354 0.0 3.2 0.00 0.00 0.00 55 1012.6
20260505204519 16 13 0.0 1.6 0.00 0.00 0.00 54 1012.6
20260505203015 15 355 0.0 1.6 0.00 0.00 0.00 49 1012.7